"Pseudo-MPEC" for A107ZJi

Created 2018 Aug 12 20:18:29 UT using Find_Orb

Click here for an explanation of pseudo-MPECs

 
 Astrometry: 
     A107ZJi  C2018 08 11aCAstrometryJo-/)('J*Xj:/]%38=+Nsp%MGjl(RiR!vY0Y;k)yT08
     A107ZJi  C2018 08 11#s92WsIj+wcWjIG6QS^TV=62/s13G%E$REMB+%_-\)0]?b7ykV=dT08
     A107ZJi  C2018 08 11F)s?:,@s,DK+LG6+,wg5.J/J;.JaAKdJD^+$8k#cP)1g4qU-LYvuT08
     A107ZJi KC2018 08 11$F\Cgaak_y0jXH5[1fv-RnK-UxfKN;OOwLp^4bDgrhEt$Z+Dx\Q*L01
     A107ZJi KC2018 08 11PVk_TX0]M92Kf(cTjaAPg6.Gv,X]*b9PGHb1_5Jq`6S$jxe2:oSQL01
     A107ZJi KC2018 08 11WT'c._m!nCp+3U@]L[tY_W$*rN]#+l*oCImD=6F3AYhpnwjN6c+:K61
     A107ZJi KC2018 08 11mWh+ZNwCwalE_d[_wW@si4p3,vHj%CO:qLXn#@:HY$*?Va7vZd*:K61
     A107ZJi KC2018 08 11'j6)jZbg/855`9U!a4YE-5`EetKPXe1HV:m6V4F3M5H3N#hjkHiyK61
     A107ZJi KC2018 08 11]*x#XIS7i_EX,[hA[!HqI[yJirL3K/=IfuL?f;]L`o2v^SW_!(c7G34
     A107ZJi KC2018 08 11(i;K;g^@PUC=+p6q1redacted;twrCdn[=%us.^djM%oCl.cvc-9G34
     A107ZJi KC2018 08 11H#Pth$q:![b]ShXPpjtwIi@ow^k;k+cH5]69/Q:D9QQ[cWeY!_1JG34
     A107ZJi KC2018 08 11O+?i1A4p_\+BMD+X8PKj'--9Lg:2R?;]^A'Ic;?HRJDYH*7;4b+oG34
     A107ZJi KC2018 08 11I8.vY#beB#IDPPaEIcQt.0v8G7dvugi*=-%hO\7/[A9B@c,r7n(3104
     A107ZJi KC2018 08 11`*%fH!a5DE-GRf5[IE*!^AG2m^vLfZQ,(,n=Q9$RFkg':mxHe$if204
     A107ZJi KC2018 08 11k7%q3Q8m\DOBllM,q%Rl3V9:.;Y2_EWvJ)cUuVk?_4f+arA$rgkN104
     A107ZJi KC2018 08 11[_6v#[ZWhc@x^PiX5#DA?pw`Np'sxb3i_+ltIRljLj(WY:l78g0b204
     A107ZJi KC2018 08 11?JjiQdg:w0S(M,)YxM,B/c!$/lwYpLI_$3rd7KmmxSvXQ#sg'Nk6204
     A107ZJi KC2018 08 11u-gwf]Jjv(##h:K5-IB^[s;yF(ZNsKI[8!!PKkLSo)S7CX+[Hi=u104
     A107ZJi KC2018 08 11*pugQI`MAnNCDS4K`]T9NRKT],IQd@LQqPlM#3A+0f^ykD\y7eQb104
     A107ZJi KC2018 08 11?hHvHrMglT=*0jax1lbQ*av(xv?c'[(psee)XrU,_!:XrDhb+@NQ204
     A107ZJi KC2018 08 12)Y[jVch,\+3q4]TlV0R;els^jO\(?adr$R$:^k1LOfr+P%oKNSpjW34
     A107ZJi KC2018 08 12.EjLF,g0Xl6`T(rZ18-h2p]7Dk-4SSoCY;*F%bluyS*[%dl=qb+]W34
     A107ZJi KC2018 08 12XBO#3\k@i`HUHoZ0a0cn:Ds$j6PRu31b4+yYLh@j7ul`0!@@pZC8W34
     A107ZJi KC2018 08 12/Zha/VrMr`3K@9::]+iOEy+FsKpSj:FyN4:]D3eqMxBG76atu+#@W34
     A107ZJi KC2018 08 12*.g$Z]1$wWW%FqcD^N;2^3=NOkJZnjdVWBjoTnFeKL1wiV[qKGwcW34
     A107ZJi KC2018 08 12[:8d_bD-,bc+T39H3$N_jK(`yK.v5ij'-OCQ6O9mxTZkVnJ^-:c6W34
     A107ZJi KC2018 08 12:J5?XfT!V5.`X9v.,vU+*jP;8yy:c5.g%(EE\!Lb;*!8l-hlslC4I19
     A107ZJi KC2018 08 12^Cg]8*Mq,(Q?p,kXHOY:BA(D3Uj0CN.11;^Tgj])uVT(!2*PFDLAI19
     A107ZJi KC2018 08 12p.\:?%h'j'`8[M]r0X(d`)QD4Qh:ro1Z+%S0nZUHa;`ChCoNEOCPI19

Station data:
(104) San Marcello Pistoiese  (N44.063037 E10.804200)  Italy. 0.40-m f/5
   reflector.
(204) Schiaparelli Observatory  (N45.867933 E8.770800)  Italy.  Observer L.
   Buzzi. 0.60-m f/4.64 Newtonian + CCD.
(G34) Oberfrauendorf  (N50.860063 E13.701500)  Germany.
(I19) Observatorio El Gato Gris, Tanti  (S31.356805 W64.592890)  Argentina.
(K61) Rokycany Observatory  (N49.751403 E13.602600)  Czech Republic.
(L01) Višnjan Observatory, Tičan  (N45.290900 E13.749300)  Croatia.  Observer
   K. Korlević. 1.0-m f/2.9 reflector + CCD.
(T08) ATLAS-MLO, Mauna Loa  (N19.535772 W155.576400)  US/Hawaii.
(W34) Squirrel Valley Observatory, Columbus  (N35.225393 W82.154700)
   US/North Carolina.  Observer R. L. Flynn. 0.20-m f/10 Schmidt-Cassegrain +
   f/7.0 focal reducer.

Orbital elements:  A107ZJi
   Perihelion 2018 Jun 1.407251 +/- 0.038 TT =  9:46:26 (JD 2458270.907251)
Epoch 2018 Aug 12.0 TT = JDT 2458342.5   Earth MOID: 0.0000   AutoNEOCP
M  63.82283 +/- 0.06                (J2000 ecliptic)
n   0.89147072 +/- 0.000395         Peri.  260.46184 +/- 0.012
a   1.06921405 +/- 0.000316         Node   317.64416 +/- 0.0016
e   0.3198928 +/- 0.000417          Incl.    9.50681 +/- 0.012
P   1.11/403.82d           H 27.4   G  0.15   U  7.5  
q 0.72718015 +/- 0.000231    Q 1.41124795 +/- 0.000863
From 29 observations 2018 Aug. 11-12 (15.2 hr); mean residual 0".55
Residuals in arcseconds: 
180811 T08  .34+  .26+    180811 G34  .38-  .30-    180812 W34  .09+  .49+    
180811 T08  .13-  .04-    180811 G34  .04-  .05-    180812 W34  .16-  .47+    
180811 T08  .54-  .02-    180811 104  .59-  .01+    180812 W34  .42-  .03-    
180811 L01  1.0-  .73-    180811 204  .07-  .32-    180812 W34  .17-  .27+    
180811 L01  .39-  .67-    180811 104  .40-  .27-    180812 W34  .32-  .38+    
180811 K61  2.0+  .53+    180811 204  .27-  .10+    180812 W34  .08-  .38+    
180811 K61  2.0+  .60+    180811 204  .29-  .05-    180812 I19  .33+  .38+    
180811 K61  1.5+  .39+    180811 104  .13+  .05-    180812 I19  .16+  .26-    
180811 G34  .26-  .00     180811 104  .33-  .23-    180812 I19  .51-  .53-    
180811 G34  .37-  .01-    180811 204  .27-  .05-    

Ephemerides (geocentric):
Date (UTC) HH   RA              Dec         delta   r     elong  mag " sig PA
---- -- -- --  -------------   -----------  ------ ------ -----  --- ---- ---
2018 08 12 20  20 32 59.582   +07 54 23.10  .01423 1.0260 153.3 19.4  .96  71
2018 08 12 21  20 32 55.835   +07 53 50.07  .01450 1.0263 153.3 19.5  1.0  71
2018 08 12 22  20 32 52.229   +07 53 18.11  .01476 1.0265 153.3 19.5  1.0  71
2018 08 12 23  20 32 48.756   +07 52 47.16  .01503 1.0267 153.3 19.5  1.1  70
2018 08 13 00  20 32 45.409   +07 52 17.17  .01529 1.0270 153.3 19.6  1.1  70
2018 08 13 01  20 32 42.182   +07 51 48.09  .01556 1.0272 153.3 19.6  1.2  70
2018 08 13 02  20 32 39.069   +07 51 19.86  .01582 1.0274 153.3 19.7  1.2  70
2018 08 13 03  20 32 36.064   +07 50 52.45  .01608 1.0276 153.3 19.7  1.3  69
2018 08 13 04  20 32 33.163   +07 50 25.82  .01635 1.0279 153.3 19.7  1.3  69
2018 08 13 05  20 32 30.361   +07 49 59.93  .01661 1.0281 153.2 19.8  1.3  69
2018 08 13 06  20 32 27.652   +07 49 34.74  .01688 1.0283 153.2 19.8  1.4  69
2018 08 13 07  20 32 25.033   +07 49 10.22  .01714 1.0286 153.2 19.8  1.4  69
2018 08 13 08  20 32 22.499   +07 48 46.33  .01741 1.0288 153.2 19.9  1.4  68
2018 08 13 09  20 32 20.048   +07 48 23.05  .01767 1.0290 153.2 19.9  1.5  68
2018 08 13 10  20 32 17.675   +07 48 00.35  .01794 1.0292 153.2 19.9  1.5  68
2018 08 13 11  20 32 15.377   +07 47 38.20  .01820 1.0295 153.2 20.0  1.5  68
2018 08 13 12  20 32 13.151   +07 47 16.58  .01847 1.0297 153.2 20.0  1.6  68
2018 08 13 13  20 32 10.994   +07 46 55.46  .01873 1.0299 153.2 20.0  1.6  68
2018 08 13 14  20 32 08.903   +07 46 34.82  .01900 1.0302 153.2 20.1  1.6  68
2018 08 13 15  20 32 06.876   +07 46 14.65  .01926 1.0304 153.1 20.1  1.7  67
2018 08 13 16  20 32 04.910   +07 45 54.91  .01953 1.0306 153.1 20.1  1.7  67
2018 08 13 17  20 32 03.002   +07 45 35.60  .01979 1.0308 153.1 20.1  1.7  67
2018 08 13 18  20 32 01.151   +07 45 16.70  .02006 1.0311 153.1 20.2  1.8  67
2018 08 13 19  20 31 59.354   +07 44 58.18  .02032 1.0313 153.1 20.2  1.8  67
2018 08 13 20  20 31 57.609   +07 44 40.04  .02059 1.0315 153.1 20.2  1.8  67
2018 08 13 21  20 31 55.915   +07 44 22.25  .02085 1.0318 153.1 20.3  1.8  67
2018 08 13 22  20 31 54.269   +07 44 04.80  .02112 1.0320 153.1 20.3  1.9  67
2018 08 13 23  20 31 52.671   +07 43 47.68  .02138 1.0322 153.1 20.3  1.9  67
2018 08 14 00  20 31 51.117   +07 43 30.88  .02165 1.0324 153.0 20.3  1.9  67
2018 08 14 01  20 31 49.607   +07 43 14.39  .02191 1.0327 153.0 20.4  1.9  67
2018 08 14 02  20 31 48.139   +07 42 58.18  .02218 1.0329 153.0 20.4  2.0  66
2018 08 14 03  20 31 46.712   +07 42 42.26  .02244 1.0331 153.0 20.4  2.0  66
2018 08 14 04  20 31 45.324   +07 42 26.60  .02271 1.0333 153.0 20.5  2.0  66
2018 08 14 05  20 31 43.975   +07 42 11.21  .02297 1.0336 153.0 20.5  2.0  66
2018 08 14 06  20 31 42.662   +07 41 56.06  .02324 1.0338 153.0 20.5  2.1  66
2018 08 14 07  20 31 41.385   +07 41 41.16  .02350 1.0340 153.0 20.5  2.1  66
2018 08 14 08  20 31 40.143   +07 41 26.49  .02377 1.0343 153.0 20.6  2.1  66
2018 08 14 09  20 31 38.934   +07 41 12.04  .02403 1.0345 152.9 20.6  2.1  66
2018 08 14 10  20 31 37.757   +07 40 57.80  .02430 1.0347 152.9 20.6  2.2  66
2018 08 14 11  20 31 36.612   +07 40 43.78  .02456 1.0349 152.9 20.6  2.2  66
2018 08 14 12  20 31 35.497   +07 40 29.95  .02483 1.0352 152.9 20.7  2.2  66
2018 08 14 13  20 31 34.413   +07 40 16.32  .02509 1.0354 152.9 20.7  2.2  66
2018 08 14 14  20 31 33.356   +07 40 02.88  .02536 1.0356 152.9 20.7  2.2  66
2018 08 14 15  20 31 32.328   +07 39 49.61  .02562 1.0358 152.9 20.7  2.3  66
2018 08 14 16  20 31 31.327   +07 39 36.52  .02589 1.0361 152.9 20.7  2.3  66
2018 08 14 17  20 31 30.353   +07 39 23.59  .02616 1.0363 152.8 20.8  2.3  66
2018 08 14 18  20 31 29.404   +07 39 10.83  .02642 1.0365 152.8 20.8  2.3  65
2018 08 14 19  20 31 28.480   +07 38 58.23  .02669 1.0368 152.8 20.8  2.3  65